Location: Newark
(42.8481°N, 0.4872°E)
Time: 23:47:18
(UTC+00:00)

Transit 2A Rocket - Pass Details

Date: 29 October 2020
Orbit: 588 x 914 km, 66.7° (Epoch: 29 November)

Event Time Altitude Azimuth Distance (km) Brightness Sun altitude
Rises 10:02:10 0° 229° (SW) 3,536 8.6 29.0°
Reaches altitude 10° 10:04:49 10° 235° (SW) 2,597 7.9 29.3°
Maximum altitude 10:10:38 46° 308° (NW) 1,198 6.0 29.7°
Drops below altitude 10° 10:16:17 10° 21° (NNE) 2,515 7.4 30.2°
Sets 10:18:49 0° 27° (NNE) 3,414 8.0 30.4°
